Showing default

LAOSAT 1, 41034

Orbit data source: Space-Track

LAOSAT 1, 41034 is a Laotian payload satellite in GEO that was launched on Fri, 20 Nov 2015 UTC via a CHANG ZHENG 3B launch vehicle from the Xichang Space Center, China (XSC). Payload-class satellites include a variety of spacecraft equipped with specific instruments for various scientific and technological missions. These include communications satellites like Starlink; space stations such as the ISS; scientific satellites like the Hubble; Earth observation satellites from companies like Planet Labs, Umbra, and HawkEye 360; GPS; miniature CubeSats for education and research; and military/defense satellites.

Not visible in the next 10 days
Identifier
41034, 2015-067A
Orbit
GEO
Country
Flag of UnknownUnknown / LAOS
Related business
Manufacturer
CAST
Mission
Operational Civil Communications
Bus & Motor
DFH-3B, DFH-4 LAE
Mass
~5,086 kg wet, ~2,500 kg dry
Launch date (UTC)
2015-11-20 (10 years ago)
Launch vehicle
CHANG ZHENG 3B
Launch site
Xichang Space Center, China (XSC)
Object type
Payload
Rocket body
Debris
Shape & HBR
Box + 2 Pan, 15.0 m
Radar Cross Section
34.063 m², Large (>1 m²)

Expand to show TLE details & history
Last TLE update: 8 hours ago

TLE from 8 hours ago
0 LAOSAT 1
1 41034U 15067A   25260.86027935 -.00000364  00000-0  00000-0 0  9990
2 41034   0.0496 330.5924 0002259 146.5344 318.0845  1.00268665 36129
Epoch: 2025-09-17T20:38Z
TLE epoch observation values (Epoch: 2025-09-17T20:38:48.135Z)
Latitude
0.01312°
Longitude
128.46516°
Altitude
35,779.908 km
Speed
3.075 km/s
True Right ascension
05h 00m 47s
True Declination
0° 00' 47"
Sunlit
Object was in daylight at epoch
Visualization orbit readout
Latitude
Unknown
Longitude
Unknown
Altitude
Unknown
Speed
Unknown
Apparent Right ascension
Unknown
Apparent Declination
Unknown
Sunlit
N/A
Visualization observer readout
Local Sidereal Time
21:21:29
Azimuth
Unknown
Elevation
Unknown
Doppler factor
Unknown
Orbital elements
Apogee altitude
35,798.065 km
Perigee altitude
35,779.015 km
Semi-major axis
42,166.677 km
Eccentricity
0.00023
Inclination
0.0496°
RAAN
330.5924°
Arg. of periapsis
146.5344°
True anomaly
318.0672°
Mean anomaly
318.0845°
Eccentric anomaly
318.07585°
Mean motion
0.25066 °/min
Orbital period
1,436.19 mins
BSTAR
0
Loading maneuver chart data...
Computing Atmospheric mass density...
Loading historical data...
Loading historical data...
Loading historical data...
Loading historical data...
Loading historical data...
Loading historical data...
Loading historical data...
Other satellites on launch #67 in the year 2015 (2015-11-20 UTC)

Documentation

Showing up to 5 results
|